Location: ?????
(32.7281°N, 34.9563°E)
Time: 18:22:10
(UTC+00:00)

CSL-04 Rocket - Pass Details

Date: 29 October 2020
Orbit: 805 x 861 km, 98.9° (Epoch: 30 November)

Event Time Altitude Azimuth Distance (km) Brightness Sun altitude
Exits shadow 16:52:33 30° 165° (SSE) 1,507 4.8 -25.9°
Maximum altitude 16:55:29 88° 80° (E) 863 3.6 -26.5°
Drops below altitude 10° 17:01:01 10° 347° (NNW) 2,486 6.3 -27.7°
Sets 17:03:23 0° 348° (NNW) 3,418 7.0 -28.2°
